Time,TemperatureF,DewpointF,PressureIn,WindDirection,WindDirectionDegrees,WindSpeedMPH,WindSpeedGustMPH,Humidity,HourlyPrecipIn,Conditions,Clouds,dailyrainin,SoftwareType,DateUTC
2013-04-16 00:00:00,45.6,43.3,30.31,North,359,6.3,6.3,92,0.00,,---,0.00,VWS V14.01,2013-04-16 04:00:00,
2013-04-16 00:05:00,46.1,43.7,30.31,East,89,3.3,5.2,91,0.00,,---,0.00,VWS V14.01,2013-04-16 04:05:00,
2013-04-16 00:10:00,46.3,43.7,30.31,NNE,31,2.4,4.7,90,0.00,,---,0.00,VWS V14.01,2013-04-16 04:10:00,
2013-04-16 00:11:00,46.4,43.5,30.31,East,82,2.5,3.4,90,0.00,,---,0.00,VWS V14.01,2013-04-16 04:11:00,
2013-04-16 00:15:00,45.3,42.7,30.31,SE,145,0.0,0.0,90,0.00,,---,0.00,VWS V14.01,2013-04-16 04:15:00,
2013-04-16 00:20:00,45.7,42.9,30.30,SSE,162,2.4,2.7,90,0.00,,---,0.00,VWS V14.01,2013-04-16 04:20:00,
2013-04-16 00:25:00,45.9,43.0,30.31,East,90,1.4,2.1,90,0.00,,---,0.00,VWS V14.01,2013-04-16 04:25:00,
2013-04-16 00:30:00,46.6,43.7,30.31,SSE,148,2.9,3.6,89,0.00,,---,0.00,VWS V14.01,2013-04-16 04:30:00,
2013-04-16 00:35:00,45.7,42.7,30.30,NE,51,1.7,1.9,89,0.00,,---,0.00,VWS V14.01,2013-04-16 04:35:00,
2013-04-16 00:40:00,45.8,42.8,30.31,SSE,148,3.0,3.0,89,0.00,,---,0.00,VWS V14.01,2013-04-16 04:40:00,
2013-04-16 00:45:00,46.1,43.1,30.30,SE,139,2.7,3.2,89,0.00,,---,0.00,VWS V14.01,2013-04-16 04:45:00,
2013-04-16 00:50:00,46.5,43.6,30.30,SE,127,2.4,2.6,89,0.00,,---,0.00,VWS V14.01,2013-04-16 04:50:00,
2013-04-16 00:52:00,59.0,51.3,30.10,North,359,5.5,12.4,76,0.00,,---,0.00,VWS V14.01,2013-04-16 04:52:00,
2013-04-16 00:55:00,45.6,42.7,30.30,SE,127,1.8,2.9,90,0.00,,---,0.00,VWS V14.01,2013-04-16 04:55:00,
2013-04-16 01:00:00,45.9,43.0,30.30,SE,138,2.2,2.4,89,0.00,,---,0.00,VWS V14.01,2013-04-16 05:00:00,
2013-04-16 01:05:00,45.5,42.7,30.30,SSE,153,3.0,3.3,90,0.00,,---,0.00,VWS V14.01,2013-04-16 05:05:00,
2013-04-16 01:10:00,45.9,43.0,30.30,SE,124,0.0,3.3,90,0.00,,---,0.00,VWS V14.01,2013-04-16 05:10:00,
2013-04-16 01:15:00,44.5,41.7,30.30,SSE,152,2.8,5.0,90,0.00,,---,0.00,VWS V14.01,2013-04-16 05:15:00,
2013-04-16 01:20:00,45.5,42.8,30.29,South,188,1.6,5.0,90,0.00,,---,0.00,VWS V14.01,2013-04-16 05:20:00,
2013-04-16 01:25:00,45.6,43.1,30.29,SSE,152,4.5,6.8,91,0.00,,---,0.00,VWS V14.01,2013-04-16 05:25:00,
2013-04-16 01:30:00,45.7,43.3,30.29,SSE,150,3.2,6.8,91,0.00,,---,0.00,VWS V14.01,2013-04-16 05:30:00,
2013-04-16 01:35:00,45.6,43.3,30.29,East,100,3.7,6.8,92,0.00,,---,0.00,VWS V14.01,2013-04-16 05:35:00,
2013-04-16 01:40:00,45.6,43.4,30.28,SE,132,2.2,6.8,92,0.00,,---,0.00,VWS V14.01,2013-04-16 05:40:00,
2013-04-16 01:45:00,46.0,43.8,30.28,NNE,13,2.2,6.8,92,0.00,,---,0.00,VWS V14.01,2013-04-16 05:45:00,
2013-04-16 01:50:00,45.2,43.1,30.28,East,79,3.7,6.8,92,0.00,,---,0.00,VWS V14.01,2013-04-16 05:50:00,
2013-04-16 01:55:00,45.0,42.9,30.28,SSE,162,3.2,6.8,92,0.00,,---,0.00,VWS V14.01,2013-04-16 05:55:00,
2013-04-16 02:00:00,45.8,43.7,30.28,SE,142,2.5,6.8,92,0.00,,---,0.00,VWS V14.01,2013-04-16 06:00:00,
2013-04-16 02:05:00,45.7,43.7,30.28,North,359,3.6,6.8,92,0.00,,---,0.00,VWS V14.01,2013-04-16 06:05:00,
2013-04-16 02:10:00,46.0,44.0,30.28,East,101,1.0,6.8,92,0.00,,---,0.00,VWS V14.01,2013-04-16 06:10:00,
2013-04-16 02:14:00,46.2,44.0,30.28,ESE,122,0.0,6.8,92,0.00,,---,0.00,VWS V14.01,2013-04-16 06:14:00,
2013-04-16 02:19:00,45.8,43.7,30.28,SE,131,0.7,6.8,92,0.00,,---,0.00,VWS V14.01,2013-04-16 06:19:00,
2013-04-16 02:24:00,45.6,43.6,30.28,North,359,2.3,6.8,92,0.00,,---,0.00,VWS V14.01,2013-04-16 06:24:00,
2013-04-16 02:29:00,45.8,43.7,30.28,ESE,114,2.6,6.8,92,0.00,,---,0.00,VWS V14.01,2013-04-16 06:29:00,
2013-04-16 02:34:00,45.7,43.6,30.28,SSE,153,2.1,6.8,92,0.00,,---,0.00,VWS V14.01,2013-04-16 06:34:00,
2013-04-16 02:39:00,46.4,44.3,30.28,NNE,28,2.4,6.8,92,0.00,,---,0.00,VWS V14.01,2013-04-16 06:39:00,
2013-04-16 02:44:00,45.7,43.5,30.28,ENE,72,0.4,6.8,92,0.00,,---,0.00,VWS V14.01,2013-04-16 06:44:00,
2013-04-16 02:49:00,46.3,44.1,30.28,SSE,152,1.3,6.8,92,0.00,,---,0.00,VWS V14.01,2013-04-16 06:49:00,
2013-04-16 02:54:00,46.0,43.7,30.28,ENE,62,0.0,6.8,92,0.00,,---,0.00,VWS V14.01,2013-04-16 06:54:00,
2013-04-16 02:59:00,46.6,44.3,30.28,ENE,68,2.1,6.8,92,0.00,,---,0.00,VWS V14.01,2013-04-16 06:59:00,
2013-04-16 03:04:00,45.8,43.4,30.28,SE,128,0.0,6.8,91,0.00,,---,0.00,VWS V14.01,2013-04-16 07:04:00,
2013-04-16 03:09:00,46.4,44.1,30.28,SSE,153,0.5,6.8,92,0.00,,---,0.00,VWS V14.01,2013-04-16 07:09:00,
2013-04-16 03:14:00,45.8,43.5,30.28,SSW,205,2.7,6.8,92,0.00,,---,0.00,VWS V14.01,2013-04-16 07:14:00,
2013-04-16 03:19:00,45.6,43.3,30.28,SE,142,1.1,6.8,92,0.00,,---,0.00,VWS V14.01,2013-04-16 07:19:00,
2013-04-16 03:24:00,45.7,43.5,30.28,SE,124,2.7,6.8,92,0.00,,---,0.00,VWS V14.01,2013-04-16 07:24:00,
2013-04-16 03:29:00,45.8,43.6,30.28,NNE,25,2.2,6.8,92,0.00,,---,0.00,VWS V14.01,2013-04-16 07:29:00,
2013-04-16 03:34:00,45.9,43.7,30.28,East,80,1.1,6.8,92,0.00,,---,0.00,VWS V14.01,2013-04-16 07:34:00,
2013-04-16 03:39:00,45.8,43.6,30.28,SSE,148,1.8,6.8,92,0.00,,---,0.00,VWS V14.01,2013-04-16 07:39:00,
2013-04-16 03:44:00,45.6,43.4,30.28,ENE,72,0.2,6.8,92,0.00,,---,0.00,VWS V14.01,2013-04-16 07:44:00,
2013-04-16 03:49:00,46.1,43.9,30.28,ESE,105,1.6,6.8,92,0.00,,---,0.00,VWS V14.01,2013-04-16 07:49:00,
2013-04-16 03:54:00,46.5,44.4,30.28,ESE,121,2.2,6.8,92,0.00,,---,0.00,VWS V14.01,2013-04-16 07:54:00,
2013-04-16 03:59:00,45.5,43.4,30.28,SE,135,2.7,6.8,92,0.00,,---,0.00,VWS V14.01,2013-04-16 07:59:00,
2013-04-16 04:04:00,46.3,44.2,30.27,SE,143,2.1,6.8,92,0.00,,---,0.00,VWS V14.01,2013-04-16 08:04:00,
2013-04-16 04:09:00,46.7,44.7,30.28,SE,128,1.9,6.8,93,0.00,,---,0.00,VWS V14.01,2013-04-16 08:09:00,
2013-04-16 04:14:00,45.7,43.7,30.28,SSE,163,1.7,6.8,92,0.00,,---,0.00,VWS V14.01,2013-04-16 08:14:00,
2013-04-16 04:19:00,46.2,44.2,30.28,NE,35,2.8,6.8,93,0.00,,---,0.00,VWS V14.01,2013-04-16 08:19:00,
2013-04-16 04:24:00,46.2,44.2,30.27,SE,136,2.7,6.8,93,0.00,,---,0.00,VWS V14.01,2013-04-16 08:24:00,
2013-04-16 04:29:00,45.4,43.4,30.27,North,359,0.0,6.8,93,0.00,,---,0.00,VWS V14.01,2013-04-16 08:29:00,
2013-04-16 04:34:00,46.2,44.3,30.27,North,359,0.0,6.8,93,0.00,,---,0.00,VWS V14.01,2013-04-16 08:34:00,
2013-04-16 04:39:00,46.0,44.2,30.27,North,359,0.0,6.8,93,0.00,,---,0.00,VWS V14.01,2013-04-16 08:39:00,
2013-04-16 04:44:00,46.5,44.5,30.27,North,359,0.0,6.8,93,0.00,,---,0.00,VWS V14.01,2013-04-16 08:44:00,
2013-04-16 04:49:00,46.8,45.0,30.27,North,359,0.0,6.8,93,0.00,,---,0.00,VWS V14.01,2013-04-16 08:49:00,
2013-04-16 04:54:00,46.1,44.4,30.27,North,359,0.0,6.8,94,0.00,,---,0.00,VWS V14.01,2013-04-16 08:54:00,
2013-04-16 04:59:00,46.1,44.5,30.27,North,359,0.0,6.8,94,0.00,,---,0.00,VWS V14.01,2013-04-16 08:59:00,
2013-04-16 05:04:00,46.0,44.5,30.27,North,359,0.0,6.8,94,0.00,,---,0.00,VWS V14.01,2013-04-16 09:04:00,
2013-04-16 05:09:00,46.3,44.8,30.27,North,359,0.0,6.8,94,0.00,,---,0.00,VWS V14.01,2013-04-16 09:09:00,
2013-04-16 05:14:00,46.4,44.9,30.27,North,359,0.0,6.8,95,0.00,,---,0.00,VWS V14.01,2013-04-16 09:14:00,
2013-04-16 05:19:00,46.1,44.7,30.27,North,359,0.0,6.8,95,0.00,,---,0.00,VWS V14.01,2013-04-16 09:19:00,
2013-04-16 05:24:00,46.4,45.0,30.27,North,359,0.0,6.8,95,0.00,,---,0.00,VWS V14.01,2013-04-16 09:24:00,
2013-04-16 05:29:00,46.6,45.2,30.27,North,359,0.0,6.8,95,0.00,,---,0.00,VWS V14.01,2013-04-16 09:29:00,
2013-04-16 05:34:00,46.7,45.3,30.27,North,359,0.0,6.8,95,0.00,,---,0.00,VWS V14.01,2013-04-16 09:34:00,
2013-04-16 05:39:00,46.6,45.2,30.27,North,359,0.0,6.8,95,0.00,,---,0.00,VWS V14.01,2013-04-16 09:39:00,
2013-04-16 05:44:00,46.3,45.0,30.27,North,359,0.0,6.8,95,0.00,,---,0.00,VWS V14.01,2013-04-16 09:44:00,
2013-04-16 05:49:00,47.0,45.7,30.27,North,359,0.0,6.8,95,0.00,,---,0.00,VWS V14.01,2013-04-16 09:49:00,
2013-04-16 05:54:00,46.3,45.0,30.27,North,359,0.0,6.8,95,0.00,,---,0.00,VWS V14.01,2013-04-16 09:54:00,
2013-04-16 05:59:00,46.6,45.3,30.27,North,359,0.0,6.8,95,0.00,,---,0.00,VWS V14.01,2013-04-16 09:59:00,
2013-04-16 06:04:00,46.9,45.6,30.27,North,359,0.0,6.8,95,0.00,,---,0.00,VWS V14.01,2013-04-16 10:04:00,
2013-04-16 06:09:00,46.7,45.4,30.27,North,359,0.0,6.8,95,0.00,,---,0.00,VWS V14.01,2013-04-16 10:09:00,
2013-04-16 06:14:00,46.8,45.5,30.27,North,359,0.0,6.8,95,0.00,,---,0.00,VWS V14.01,2013-04-16 10:14:00,
2013-04-16 06:19:00,47.1,45.8,30.27,East,98,0.0,7.1,95,0.00,,---,0.00,VWS V14.01,2013-04-16 10:19:00,
2013-04-16 06:24:00,47.1,45.8,30.27,North,359,4.2,7.1,95,0.00,,---,0.00,VWS V14.01,2013-04-16 10:24:00,
2013-04-16 06:29:00,46.9,45.7,30.27,North,359,0.0,7.1,95,0.00,,---,0.00,VWS V14.01,2013-04-16 10:29:00,
2013-04-16 06:34:00,47.1,45.9,30.27,North,359,0.0,7.1,95,0.00,,---,0.00,VWS V14.01,2013-04-16 10:34:00,
2013-04-16 06:39:00,47.2,45.9,30.27,North,359,0.0,7.1,95,0.00,,---,0.00,VWS V14.01,2013-04-16 10:39:00,
2013-04-16 06:44:00,47.2,45.9,30.27,North,359,0.0,7.1,95,0.00,,---,0.00,VWS V14.01,2013-04-16 10:44:00,
2013-04-16 06:49:00,47.6,46.3,30.27,North,359,0.0,7.1,95,0.00,,---,0.00,VWS V14.01,2013-04-16 10:49:00,
2013-04-16 06:54:00,47.6,46.3,30.28,North,359,0.0,7.1,95,0.00,,---,0.00,VWS V14.01,2013-04-16 10:54:00,
2013-04-16 06:59:00,46.9,45.6,30.28,North,359,0.0,7.1,95,0.00,,---,0.00,VWS V14.01,2013-04-16 10:59:00,
2013-04-16 07:04:00,47.4,46.1,30.28,North,359,0.0,7.1,95,0.00,,---,0.00,VWS V14.01,2013-04-16 11:04:00,
2013-04-16 07:09:00,48.1,46.7,30.28,SSE,155,2.7,9.8,95,0.00,,---,0.00,VWS V14.01,2013-04-16 11:09:00,
2013-04-16 07:14:00,47.7,46.3,30.28,North,359,0.0,9.8,95,0.00,,---,0.00,VWS V14.01,2013-04-16 11:14:00,
2013-04-16 07:19:00,48.1,46.6,30.28,South,176,0.0,9.8,95,0.00,,---,0.00,VWS V14.01,2013-04-16 11:19:00,
2013-04-16 07:24:00,48.4,46.8,30.28,NNE,28,4.5,9.8,94,0.00,,---,0.00,VWS V14.01,2013-04-16 11:24:00,
2013-04-16 07:29:00,48.7,46.9,30.28,SSE,167,6.4,9.8,94,0.00,,---,0.00,VWS V14.01,2013-04-16 11:29:00,
2013-04-16 07:34:00,49.2,47.2,30.28,North,359,7.0,9.8,93,0.00,,---,0.00,VWS V14.01,2013-04-16 11:34:00,
2013-04-16 07:39:00,49.4,47.1,30.28,SSE,167,5.9,9.8,92,0.00,,---,0.00,VWS V14.01,2013-04-16 11:39:00,
2013-04-16 07:44:00,49.5,46.8,30.28,South,179,6.0,9.8,90,0.00,,---,0.00,VWS V14.01,2013-04-16 11:44:00,
2013-04-16 07:49:00,49.5,46.5,30.28,North,359,4.3,9.8,89,0.00,,---,0.00,VWS V14.01,2013-04-16 11:49:00,
2013-04-16 07:54:00,50.0,46.8,30.28,SE,132,5.4,9.8,89,0.00,,---,0.00,VWS V14.01,2013-04-16 11:54:00,
2013-04-16 07:59:00,50.2,46.6,30.28,SSE,159,5.9,9.8,88,0.00,,---,0.00,VWS V14.01,2013-04-16 11:59:00,
2013-04-16 08:04:00,50.6,46.6,30.28,South,177,3.9,9.8,86,0.00,,---,0.00,VWS V14.01,2013-04-16 12:04:00,
2013-04-16 08:09:00,51.7,46.7,30.28,SSE,165,6.5,9.8,83,0.00,,---,0.00,VWS V14.01,2013-04-16 12:09:00,
2013-04-16 08:14:00,52.3,46.7,30.28,South,173,7.3,13.8,81,0.00,,---,0.00,VWS V14.01,2013-04-16 12:14:00,
2013-04-16 08:18:00,52.5,46.5,30.28,North,359,11.6,13.8,80,0.00,,---,0.00,VWS V14.01,2013-04-16 12:18:00,
2013-04-16 08:23:00,52.7,46.7,30.28,SSW,198,9.8,13.8,80,0.00,,---,0.00,VWS V14.01,2013-04-16 12:23:00,
2013-04-16 08:28:00,52.8,46.6,30.28,SSE,158,9.3,14.0,79,0.00,,---,0.00,VWS V14.01,2013-04-16 12:28:00,
2013-04-16 08:33:00,53.1,46.6,30.27,South,190,9.6,14.0,78,0.00,,---,0.00,VWS V14.01,2013-04-16 12:33:00,
2013-04-16 08:38:00,53.9,47.1,30.27,ENE,75,9.5,14.0,78,0.00,,---,0.00,VWS V14.01,2013-04-16 12:38:00,
2013-04-16 08:43:00,53.7,46.9,30.27,SSE,167,7.8,14.0,78,0.00,,---,0.00,VWS V14.01,2013-04-16 12:43:00,
2013-04-16 08:48:00,54.4,47.1,30.26,SSW,204,6.4,14.0,76,0.00,,---,0.00,VWS V14.01,2013-04-16 12:48:00,
2013-04-16 08:53:00,55.1,47.8,30.26,SSE,153,6.5,14.7,76,0.00,,---,0.00,VWS V14.01,2013-04-16 12:53:00,
2013-04-16 08:58:00,55.1,47.4,30.27,North,359,0.4,15.4,75,0.00,,---,0.00,VWS V14.01,2013-04-16 12:58:00,
2013-04-16 09:03:00,55.0,47.3,30.26,SSE,159,9.4,15.4,75,0.00,,---,0.00,VWS V14.01,2013-04-16 13:03:00,
2013-04-16 09:08:00,55.3,47.6,30.26,North,359,1.1,19.4,75,0.00,,---,0.00,VWS V14.01,2013-04-16 13:08:00,
2013-04-16 09:13:00,55.8,47.8,30.26,SSE,149,12.2,19.4,74,0.00,,---,0.00,VWS V14.01,2013-04-16 13:13:00,
2013-04-16 09:18:00,55.9,47.7,30.27,North,359,12.2,19.4,74,0.00,,---,0.00,VWS V14.01,2013-04-16 13:18:00,
2013-04-16 09:23:00,56.6,48.0,30.27,North,359,15.2,19.4,73,0.00,,---,0.00,VWS V14.01,2013-04-16 13:23:00,
2013-04-16 09:28:00,56.1,47.9,30.27,SSE,149,15.0,19.4,74,0.00,,---,0.00,VWS V14.01,2013-04-16 13:28:00,
2013-04-16 09:33:00,56.4,48.2,30.27,North,359,8.8,19.4,74,0.00,,---,0.00,VWS V14.01,2013-04-16 13:33:00,
2013-04-16 09:38:00,56.8,48.0,30.27,North,359,13.7,19.4,72,0.00,,---,0.00,VWS V14.01,2013-04-16 13:38:00,
2013-04-16 09:43:00,57.1,48.0,30.27,NNE,18,12.2,19.4,72,0.00,,---,0.00,VWS V14.01,2013-04-16 13:43:00,
2013-04-16 09:48:00,57.1,47.8,30.28,SSE,150,14.8,19.4,71,0.00,,---,0.00,VWS V14.01,2013-04-16 13:48:00,
2013-04-16 09:53:00,57.0,47.8,30.28,South,172,9.8,19.4,71,0.00,,---,0.00,VWS V14.01,2013-04-16 13:53:00,
2013-04-16 09:58:00,58.1,48.1,30.28,SSE,166,16.0,19.4,69,0.00,,---,0.00,VWS V14.01,2013-04-16 13:58:00,
2013-04-16 10:03:00,57.6,47.8,30.28,SW,231,9.4,19.4,70,0.00,,---,0.00,VWS V14.01,2013-04-16 14:03:00,
2013-04-16 10:08:00,57.1,47.6,30.28,North,359,3.2,19.4,70,0.00,,---,0.00,VWS V14.01,2013-04-16 14:08:00,
2013-04-16 10:13:00,57.4,47.5,30.27,North,359,6.6,19.6,69,0.00,,---,0.00,VWS V14.01,2013-04-16 14:13:00,
2013-04-16 10:18:00,57.9,48.3,30.27,South,172,16.1,19.6,70,0.00,,---,0.00,VWS V14.01,2013-04-16 14:18:00,
2013-04-16 10:23:00,58.4,48.2,30.27,North,353,7.5,19.6,69,0.00,,---,0.00,VWS V14.01,2013-04-16 14:23:00,
2013-04-16 10:28:00,58.1,47.9,30.27,SSE,155,12.7,19.6,69,0.00,,---,0.00,VWS V14.01,2013-04-16 14:28:00,
2013-04-16 10:33:00,58.0,48.0,30.27,North,359,12.1,19.6,69,0.00,,---,0.00,VWS V14.01,2013-04-16 14:33:00,
2013-04-16 10:38:00,58.0,47.3,30.27,North,359,8.4,19.6,68,0.00,,---,0.00,VWS V14.01,2013-04-16 14:38:00,
2013-04-16 10:43:00,58.2,48.1,30.27,SSW,194,0.4,19.6,69,0.00,,---,0.00,VWS V14.01,2013-04-16 14:43:00,
2013-04-16 10:48:00,58.8,47.9,30.27,North,359,1.1,19.6,67,0.00,,---,0.00,VWS V14.01,2013-04-16 14:48:00,
2013-04-16 10:53:00,58.3,47.9,30.27,SSE,160,8.0,19.6,68,0.00,,---,0.00,VWS V14.01,2013-04-16 14:53:00,
2013-04-16 10:58:00,58.7,47.8,30.27,South,170,11.3,19.6,67,0.00,,---,0.00,VWS V14.01,2013-04-16 14:58:00,
2013-04-16 11:03:00,58.5,47.7,30.26,SSE,167,8.1,19.6,67,0.00,,---,0.00,VWS V14.01,2013-04-16 15:03:00,
2013-04-16 11:08:00,58.4,47.3,30.26,SSE,156,10.6,19.6,66,0.00,,---,0.00,VWS V14.01,2013-04-16 15:08:00,
2013-04-16 11:13:00,59.0,48.1,30.26,SSE,149,12.2,19.6,67,0.00,,---,0.00,VWS V14.01,2013-04-16 15:13:00,
2013-04-16 11:18:00,59.3,48.5,30.26,North,359,0.5,19.6,67,0.00,,---,0.00,VWS V14.01,2013-04-16 15:18:00,
2013-04-16 11:23:00,58.8,48.5,30.26,SSW,207,7.3,19.6,69,0.00,,---,0.00,VWS V14.01,2013-04-16 15:23:00,
2013-04-16 11:28:00,59.6,48.5,30.26,NE,48,15.5,19.6,67,0.00,,---,0.00,VWS V14.01,2013-04-16 15:28:00,
2013-04-16 11:33:00,59.2,48.7,30.26,NE,53,8.7,19.6,68,0.00,,---,0.00,VWS V14.01,2013-04-16 15:33:00,
2013-04-16 11:38:00,58.8,48.4,30.25,North,359,0.4,21.3,68,0.00,,---,0.00,VWS V14.01,2013-04-16 15:38:00,
2013-04-16 11:43:00,59.4,48.7,30.25,North,359,9.3,21.3,68,0.00,,---,0.00,VWS V14.01,2013-04-16 15:43:00,
2013-04-16 11:48:00,59.3,48.9,30.25,North,359,9.1,21.3,68,0.00,,---,0.00,VWS V14.01,2013-04-16 15:48:00,
2013-04-16 11:53:00,59.0,48.9,30.25,North,359,0.0,21.3,69,0.00,,---,0.00,VWS V14.01,2013-04-16 15:53:00,
2013-04-16 11:58:00,59.3,49.3,30.25,NNE,20,16.7,21.3,69,0.00,,---,0.00,VWS V14.01,2013-04-16 15:58:00,
2013-04-16 12:03:00,58.9,49.1,30.25,SE,138,7.9,21.3,70,0.00,,---,0.00,VWS V14.01,2013-04-16 16:03:00,
2013-04-16 12:08:00,59.0,49.2,30.24,South,170,3.0,21.3,70,0.00,,---,0.00,VWS V14.01,2013-04-16 16:08:00,
2013-04-16 12:13:00,58.8,49.2,30.25,North,359,0.0,21.3,70,0.00,,---,0.00,VWS V14.01,2013-04-16 16:13:00,
2013-04-16 12:18:00,58.9,49.5,30.24,North,359,0.0,21.3,71,0.00,,---,0.00,VWS V14.01,2013-04-16 16:18:00,
2013-04-16 12:23:00,59.3,49.8,30.23,North,359,0.0,21.3,71,0.00,,---,0.00,VWS V14.01,2013-04-16 16:23:00,
2013-04-16 12:28:00,59.4,49.4,30.23,North,359,0.0,21.3,69,0.00,,---,0.00,VWS V14.01,2013-04-16 16:28:00,
2013-04-16 12:33:00,59.0,49.6,30.23,SSE,148,21.3,21.9,71,0.00,,---,0.00,VWS V14.01,2013-04-16 16:33:00,
2013-04-16 12:38:00,59.2,49.8,30.23,North,359,14.2,21.9,71,0.00,,---,0.00,VWS V14.01,2013-04-16 16:38:00,
2013-04-16 12:43:00,59.0,50.2,30.23,North,359,9.2,21.9,73,0.00,,---,0.00,VWS V14.01,2013-04-16 16:43:00,
2013-04-16 12:48:00,59.8,50.2,30.23,SSE,167,12.9,21.9,70,0.00,,---,0.00,VWS V14.01,2013-04-16 16:48:00,
2013-04-16 12:53:00,59.8,50.2,30.22,SSE,163,11.8,21.9,70,0.00,,---,0.00,VWS V14.01,2013-04-16 16:53:00,
2013-04-16 12:58:00,59.4,50.1,30.22,SSE,158,0.0,21.9,71,0.00,,---,0.00,VWS V14.01,2013-04-16 16:58:00,
2013-04-16 13:03:00,59.7,50.4,30.22,North,359,6.0,21.9,71,0.00,,---,0.00,VWS V14.01,2013-04-16 17:03:00,
2013-04-16 13:08:00,60.5,50.3,30.22,North,359,18.4,21.9,69,0.00,,---,0.00,VWS V14.01,2013-04-16 17:08:00,
2013-04-16 13:13:00,61.0,50.9,30.22,South,173,3.0,21.9,69,0.00,,---,0.00,VWS V14.01,2013-04-16 17:13:00,
2013-04-16 13:18:00,61.3,51.0,30.21,North,359,14.3,21.9,69,0.00,,---,0.00,VWS V14.01,2013-04-16 17:18:00,
2013-04-16 13:23:00,61.6,51.0,30.21,North,359,0.9,21.9,68,0.00,,---,0.00,VWS V14.01,2013-04-16 17:23:00,
2013-04-16 13:28:00,61.6,50.8,30.21,South,170,12.9,21.9,68,0.00,,---,0.00,VWS V14.01,2013-04-16 17:28:00,
2013-04-16 13:33:00,61.7,51.2,30.20,SE,139,11.6,21.9,68,0.00,,---,0.00,VWS V14.01,2013-04-16 17:33:00,
2013-04-16 13:38:00,62.7,51.7,30.20,SSE,156,15.1,21.9,67,0.00,,---,0.00,VWS V14.01,2013-04-16 17:38:00,
2013-04-16 13:43:00,63.1,51.4,30.20,SE,146,13.8,21.9,66,0.00,,---,0.00,VWS V14.01,2013-04-16 17:43:00,
2013-04-16 13:48:00,62.3,51.1,30.20,SSW,201,9.0,21.9,67,0.00,,---,0.00,VWS V14.01,2013-04-16 17:48:00,
2013-04-16 13:53:00,63.8,51.9,30.20,NE,53,6.0,21.9,65,0.00,,---,0.00,VWS V14.01,2013-04-16 17:53:00,
2013-04-16 13:58:00,63.3,50.8,30.20,SE,128,12.4,21.9,64,0.00,,---,0.00,VWS V14.01,2013-04-16 17:58:00,
2013-04-16 14:03:00,63.5,51.5,30.19,North,359,2.7,21.9,65,0.00,,---,0.00,VWS V14.01,2013-04-16 18:03:00,
2013-04-16 14:08:00,63.4,50.7,30.19,North,359,11.5,21.9,63,0.00,,---,0.00,VWS V14.01,2013-04-16 18:08:00,
2013-04-16 14:13:00,64.1,51.3,30.19,North,359,1.2,21.9,63,0.00,,---,0.00,VWS V14.01,2013-04-16 18:13:00,
2013-04-16 14:18:00,64.1,51.6,30.19,North,359,15.4,21.9,64,0.00,,---,0.00,VWS V14.01,2013-04-16 18:18:00,
2013-04-16 14:23:00,63.9,51.2,30.19,South,188,11.2,21.9,63,0.00,,---,0.00,VWS V14.01,2013-04-16 18:23:00,
2013-04-16 14:28:00,64.7,51.7,30.19,NNW,343,9.5,21.9,63,0.00,,---,0.00,VWS V14.01,2013-04-16 18:28:00,
2013-04-16 14:33:00,63.8,51.3,30.18,South,184,14.0,21.9,64,0.00,,---,0.00,VWS V14.01,2013-04-16 18:33:00,
2013-04-16 14:38:00,63.8,51.5,30.18,SE,129,13.7,21.9,64,0.00,,---,0.00,VWS V14.01,2013-04-16 18:38:00,
2013-04-16 14:43:00,64.3,52.0,30.18,North,359,8.9,21.9,64,0.00,,---,0.00,VWS V14.01,2013-04-16 18:43:00,
2013-04-16 14:47:00,64.1,51.9,30.17,ESE,105,11.9,21.9,65,0.00,,---,0.00,VWS V14.01,2013-04-16 18:47:00,
2013-04-16 14:52:00,64.4,51.5,30.17,SSW,205,0.0,21.9,63,0.00,,---,0.00,VWS V14.01,2013-04-16 18:52:00,
2013-04-16 14:57:00,64.3,52.1,30.16,North,359,0.0,21.9,65,0.00,,---,0.00,VWS V14.01,2013-04-16 18:57:00,
2013-04-16 15:02:00,63.8,51.7,30.16,SE,143,15.2,21.9,65,0.00,,---,0.00,VWS V14.01,2013-04-16 19:02:00,
2013-04-16 15:07:00,63.4,51.7,30.16,SSE,166,13.4,22.5,66,0.00,,---,0.00,VWS V14.01,2013-04-16 19:07:00,
2013-04-16 15:12:00,63.5,51.6,30.16,SE,142,18.7,22.5,65,0.00,,---,0.00,VWS V14.01,2013-04-16 19:12:00,
2013-04-16 15:17:00,63.9,51.8,30.15,NE,55,18.3,23.1,65,0.00,,---,0.00,VWS V14.01,2013-04-16 19:17:00,
2013-04-16 15:22:00,64.4,52.1,30.15,South,190,14.7,23.1,64,0.00,,---,0.00,VWS V14.01,2013-04-16 19:22:00,
2013-04-16 15:27:00,65.0,51.1,30.15,North,359,1.0,23.1,61,0.00,,---,0.00,VWS V14.01,2013-04-16 19:27:00,
2013-04-16 15:32:00,65.4,50.6,30.15,SSW,194,14.9,16.8,59,0.00,,---,0.00,VWS V14.01,2013-04-16 19:32:00,
2013-04-16 15:37:00,65.2,50.9,30.15,North,359,8.1,14.1,60,0.00,,---,0.00,VWS V14.01,2013-04-16 19:37:00,
2013-04-16 15:42:00,65.2,50.7,30.14,SSW,195,11.6,15.2,59,0.00,,---,0.00,VWS V14.01,2013-04-16 19:42:00,
2013-04-16 15:47:00,65.4,50.8,30.14,SW,219,10.5,15.2,59,0.00,,---,0.00,VWS V14.01,2013-04-16 19:47:00,
2013-04-16 15:52:00,65.2,50.4,30.14,South,181,9.1,16.8,59,0.00,,---,0.00,VWS V14.01,2013-04-16 19:52:00,
2013-04-16 15:57:00,65.7,51.0,30.14,WSW,239,6.0,13.4,59,0.00,,---,0.00,VWS V14.01,2013-04-16 19:57:00,
2013-04-16 16:02:00,65.4,50.8,30.14,South,179,8.2,9.8,59,0.00,,---,0.00,VWS V14.01,2013-04-16 20:02:00,
2013-04-16 16:07:00,65.1,50.6,30.14,SSW,197,11.4,23.5,59,0.00,,---,0.00,VWS V14.01,2013-04-16 20:07:00,
2013-04-16 16:12:00,65.1,50.8,30.14,SSW,195,10.7,15.9,60,0.00,,---,0.00,VWS V14.01,2013-04-16 20:12:00,
2013-04-16 16:17:00,65.0,50.7,30.14,SW,214,11.1,12.5,60,0.00,,---,0.00,VWS V14.01,2013-04-16 20:17:00,
2013-04-16 16:22:00,65.3,51.0,30.14,SSW,194,0.0,11.4,60,0.00,,---,0.00,VWS V14.01,2013-04-16 20:22:00,
2013-04-16 16:27:00,65.3,50.8,30.14,North,1,2.4,13.3,60,0.00,,---,0.00,VWS V14.01,2013-04-16 20:27:00,
2013-04-16 16:32:00,64.9,50.2,30.14,SSW,194,15.4,18.6,59,0.00,,---,0.00,VWS V14.01,2013-04-16 20:32:00,
2013-04-16 16:37:00,65.4,50.9,30.14,WSW,245,17.1,21.4,59,0.00,,---,0.00,VWS V14.01,2013-04-16 20:37:00,
2013-04-16 16:42:00,65.2,50.9,30.14,North,359,0.0,9.7,60,0.00,,---,0.00,VWS V14.01,2013-04-16 20:42:00,
2013-04-16 16:47:00,65.3,51.2,30.14,North,359,0.0,10.9,60,0.00,,---,0.00,VWS V14.01,2013-04-16 20:47:00,
2013-04-16 16:52:00,65.4,51.3,30.13,South,184,8.3,18.4,60,0.00,,---,0.00,VWS V14.01,2013-04-16 20:52:00,
2013-04-16 16:57:00,65.8,51.6,30.13,SSE,166,10.4,18.6,60,0.00,,---,0.00,VWS V14.01,2013-04-16 20:57:00,
2013-04-16 17:02:00,65.3,51.1,30.13,South,187,12.7,17.1,60,0.00,,---,0.00,VWS V14.01,2013-04-16 21:02:00,
2013-04-16 17:07:00,65.4,51.1,30.14,SSW,195,13.6,19.4,60,0.00,,---,0.00,VWS V14.01,2013-04-16 21:07:00,
2013-04-16 17:12:00,65.4,51.9,30.13,South,190,16.3,20.2,62,0.00,,---,0.00,VWS V14.01,2013-04-16 21:12:00,
2013-04-16 17:17:00,64.9,51.6,30.13,North,359,0.0,0.5,62,0.00,,---,0.00,VWS V14.01,2013-04-16 21:17:00,
2013-04-16 17:22:00,65.1,51.4,30.13,SE,146,6.1,18.7,61,0.00,,---,0.00,VWS V14.01,2013-04-16 21:22:00,
2013-04-16 17:27:00,65.3,51.6,30.13,SW,214,12.5,15.2,61,0.00,,---,0.00,VWS V14.01,2013-04-16 21:27:00,
2013-04-16 17:32:00,65.4,51.7,30.13,North,359,0.0,0.6,61,0.00,,---,0.00,VWS V14.01,2013-04-16 21:32:00,
2013-04-16 17:37:00,65.5,51.9,30.13,North,359,0.3,9.4,61,0.00,,---,0.00,VWS V14.01,2013-04-16 21:37:00,
2013-04-16 17:42:00,65.3,51.8,30.12,SSE,162,16.2,16.2,62,0.00,,---,0.00,VWS V14.01,2013-04-16 21:42:00,
2013-04-16 17:47:00,64.7,51.3,30.12,North,359,4.7,12.1,62,0.00,,---,0.00,VWS V14.01,2013-04-16 21:47:00,
2013-04-16 17:52:00,64.7,51.6,30.12,SSW,201,12.1,14.3,62,0.00,,---,0.00,VWS V14.01,2013-04-16 21:52:00,
2013-04-16 17:57:00,65.2,51.9,30.12,South,186,0.2,15.8,62,0.00,,---,0.00,VWS V14.01,2013-04-16 21:57:00,
2013-04-16 18:02:00,64.8,51.7,30.11,SSW,212,13.0,17.7,62,0.00,,---,0.00,VWS V14.01,2013-04-16 22:02:00,
2013-04-16 18:07:00,65.0,52.0,30.11,SW,222,8.0,14.7,63,0.00,,---,0.00,VWS V14.01,2013-04-16 22:07:00,
2013-04-16 18:12:00,64.4,51.5,30.11,SSW,210,8.4,11.1,63,0.00,,---,0.00,VWS V14.01,2013-04-16 22:12:00,
2013-04-16 18:17:00,64.4,51.5,30.11,South,170,6.2,9.8,63,0.00,,---,0.00,VWS V14.01,2013-04-16 22:17:00,
2013-04-16 18:22:00,64.6,51.8,30.11,SSW,205,14.0,14.0,63,0.00,,---,0.00,VWS V14.01,2013-04-16 22:22:00,
2013-04-16 18:27:00,64.8,51.8,30.11,SSW,193,7.2,11.1,63,0.00,,---,0.00,VWS V14.01,2013-04-16 22:27:00,
2013-04-16 18:32:00,64.8,51.6,30.10,SW,222,12.7,14.9,62,0.00,,---,0.00,VWS V14.01,2013-04-16 22:32:00,
2013-04-16 18:33:00,59.1,51.5,30.10,SW,219,8.1,12.4,76,0.00,,---,0.00,VWS V14.01,2013-04-16 22:33:00,
2013-04-16 18:37:00,64.3,51.4,30.10,WSW,245,15.3,17.0,63,0.00,,---,0.00,VWS V14.01,2013-04-16 22:37:00,
2013-04-16 18:42:00,63.9,51.5,30.10,SSE,166,14.7,20.1,64,0.00,,---,0.00,VWS V14.01,2013-04-16 22:42:00,
2013-04-16 18:47:00,63.6,51.5,30.10,SSE,148,0.2,23.4,65,0.00,,---,0.00,VWS V14.01,2013-04-16 22:47:00,
2013-04-16 18:52:00,63.2,51.0,30.10,North,359,14.0,14.0,64,0.00,,---,0.00,VWS V14.01,2013-04-16 22:52:00,
2013-04-16 18:57:00,63.4,51.5,30.09,North,359,11.7,12.2,65,0.00,,---,0.00,VWS V14.01,2013-04-16 22:57:00,
2013-04-16 19:02:00,63.3,51.6,30.09,North,359,1.4,5.6,66,0.00,,---,0.00,VWS V14.01,2013-04-16 23:02:00,
2013-04-16 19:07:00,63.3,51.8,30.08,North,359,4.9,18.5,66,0.00,,---,0.00,VWS V14.01,2013-04-16 23:07:00,
2013-04-16 19:12:00,62.5,51.3,30.07,North,359,11.7,12.0,67,0.00,,---,0.00,VWS V14.01,2013-04-16 23:12:00,
2013-04-16 19:17:00,62.7,51.8,30.07,South,181,10.4,15.5,68,0.00,,---,0.00,VWS V14.01,2013-04-16 23:17:00,
2013-04-16 19:22:00,61.9,51.5,30.07,ESE,103,19.2,19.2,69,0.00,,---,0.00,VWS V14.01,2013-04-16 23:22:00,
2013-04-16 19:27:00,61.4,51.3,30.07,North,359,4.3,15.2,70,0.00,,---,0.00,VWS V14.01,2013-04-16 23:27:00,
2013-04-16 19:32:00,61.5,51.6,30.08,North,359,1.8,3.9,70,0.00,,---,0.00,VWS V14.01,2013-04-16 23:32:00,
2013-04-16 19:37:00,61.4,51.6,30.08,North,359,0.0,6.6,70,0.00,,---,0.00,VWS V14.01,2013-04-16 23:37:00,
2013-04-16 19:42:00,61.2,51.6,30.08,North,359,3.6,3.6,71,0.00,,---,0.00,VWS V14.01,2013-04-16 23:42:00,
2013-04-16 19:47:00,60.9,51.5,30.08,North,359,1.9,3.6,71,0.00,,---,0.00,VWS V14.01,2013-04-16 23:47:00,
2013-04-16 19:52:00,60.8,51.7,30.08,North,359,1.5,11.2,72,0.00,,---,0.00,VWS V14.01,2013-04-16 23:52:00,
2013-04-16 19:57:00,60.9,52.0,30.07,North,359,6.2,6.2,72,0.00,,---,0.00,VWS V14.01,2013-04-16 23:57:00,
2013-04-16 20:02:00,59.8,51.1,30.08,South,173,16.1,16.1,73,0.00,,---,0.00,VWS V14.01,2013-04-17 00:02:00,
2013-04-16 20:07:00,60.0,51.6,30.08,South,187,10.4,10.4,74,0.00,,---,0.00,VWS V14.01,2013-04-17 00:07:00,
2013-04-16 20:12:00,59.8,51.7,30.08,SW,232,9.3,9.3,74,0.00,,---,0.00,VWS V14.01,2013-04-17 00:12:00,
2013-04-16 20:17:00,59.6,51.6,30.08,SSE,156,7.5,7.5,75,0.00,,---,0.00,VWS V14.01,2013-04-17 00:17:00,
2013-04-16 20:22:00,59.6,51.7,30.09,SW,236,6.2,8.0,75,0.00,,---,0.00,VWS V14.01,2013-04-17 00:22:00,
2013-04-16 20:27:00,59.3,51.5,30.08,SW,217,4.6,4.6,75,0.00,,---,0.00,VWS V14.01,2013-04-17 00:27:00,
2013-04-16 20:32:00,60.1,52.3,30.08,SW,222,5.9,7.6,75,0.00,,---,0.00,VWS V14.01,2013-04-17 00:32:00,
2013-04-16 20:37:00,59.4,51.7,30.09,South,179,10.5,10.7,76,0.00,,---,0.00,VWS V14.01,2013-04-17 00:37:00,
2013-04-16 20:42:00,59.2,51.5,30.09,SW,218,8.1,9.1,76,0.00,,---,0.00,VWS V14.01,2013-04-17 00:42:00,
2013-04-16 20:47:00,59.5,51.8,30.10,SW,215,9.3,9.3,76,0.00,,---,0.00,VWS V14.01,2013-04-17 00:47:00,
2013-04-16 20:51:00,59.5,51.8,30.10,SW,224,7.8,7.8,76,0.00,,---,0.00,VWS V14.01,2013-04-17 00:51:00,
2013-04-16 20:56:00,58.8,51.1,30.10,SSW,210,10.9,14.1,76,0.00,,---,0.00,VWS V14.01,2013-04-17 00:56:00,
2013-04-16 21:01:00,59.5,51.7,30.10,SSW,211,5.5,5.8,75,0.00,,---,0.00,VWS V14.01,2013-04-17 01:01:00,
2013-04-16 21:06:00,59.5,51.7,30.10,SSW,201,5.8,11.4,75,0.00,,---,0.00,VWS V14.01,2013-04-17 01:06:00,
2013-04-16 21:11:00,59.6,51.8,30.10,South,181,8.1,17.3,75,0.00,,---,0.00,VWS V14.01,2013-04-17 01:11:00,
2013-04-16 21:16:00,59.5,51.7,30.10,SSW,193,7.7,15.6,75,0.00,,---,0.00,VWS V14.01,2013-04-17 01:16:00,
2013-04-16 21:21:00,59.3,51.5,30.10,SW,217,4.2,7.9,75,0.00,,---,0.00,VWS V14.01,2013-04-17 01:21:00,
2013-04-16 21:26:00,58.7,51.0,30.10,North,359,1.2,17.3,76,0.00,,---,0.00,VWS V14.01,2013-04-17 01:26:00,
2013-04-16 21:31:00,59.2,51.5,30.10,SW,218,8.9,14.0,76,0.00,,---,0.00,VWS V14.01,2013-04-17 01:31:00,
2013-04-16 21:36:00,59.3,51.6,30.10,SW,218,8.9,10.3,76,0.00,,---,0.00,VWS V14.01,2013-04-17 01:36:00,
2013-04-16 21:41:00,59.3,51.6,30.10,WSW,240,8.9,10.7,76,0.00,,---,0.00,VWS V14.01,2013-04-17 01:41:00,
2013-04-16 21:46:00,59.4,51.7,30.10,SSW,198,4.2,9.4,76,0.00,,---,0.00,VWS V14.01,2013-04-17 01:46:00,
2013-04-16 21:51:00,59.3,51.7,30.10,South,179,6.7,12.7,76,0.00,,---,0.00,VWS V14.01,2013-04-17 01:51:00,
2013-04-16 21:56:00,59.3,51.7,30.10,South,183,9.8,11.1,76,0.00,,---,0.00,VWS V14.01,2013-04-17 01:56:00,
2013-04-16 22:01:00,58.9,51.3,30.10,SSW,201,10.3,14.7,76,0.00,,---,0.00,VWS V14.01,2013-04-17 02:01:00,
2013-04-16 22:06:00,59.0,51.4,30.10,SSW,195,11.5,14.3,76,0.00,,---,0.00,VWS V14.01,2013-04-17 02:06:00,
2013-04-16 22:11:00,58.9,51.3,30.10,North,359,6.2,13.7,76,0.00,,---,0.00,VWS V14.01,2013-04-17 02:11:00,
2013-04-16 22:16:00,59.5,51.8,30.10,North,359,0.4,11.9,76,0.00,,---,0.00,VWS V14.01,2013-04-17 02:16:00,
2013-04-16 22:21:00,59.5,51.8,30.10,SSE,149,4.2,8.1,76,0.00,,---,0.00,VWS V14.01,2013-04-17 02:21:00,
2013-04-16 22:26:00,59.5,51.8,30.11,North,359,2.4,8.6,76,0.00,,---,0.00,VWS V14.01,2013-04-17 02:26:00,
2013-04-16 22:31:00,59.2,51.6,30.10,SSW,200,3.4,8.4,76,0.00,,---,0.00,VWS V14.01,2013-04-17 02:31:00,
2013-04-16 22:36:00,59.3,51.7,30.10,SSW,197,6.8,11.8,76,0.00,,---,0.00,VWS V14.01,2013-04-17 02:36:00,
2013-04-16 22:41:00,59.1,51.5,30.10,SSW,198,7.0,7.2,76,0.00,,---,0.00,VWS V14.01,2013-04-17 02:41:00,
2013-04-16 22:46:00,59.2,51.7,30.10,SSW,212,4.7,9.3,76,0.00,,---,0.00,VWS V14.01,2013-04-17 02:46:00,
2013-04-16 22:51:00,58.9,51.3,30.10,SSW,198,3.2,7.6,76,0.00,,---,0.00,VWS V14.01,2013-04-17 02:51:00,
2013-04-16 22:56:00,59.2,51.6,30.09,SW,224,1.7,15.0,76,0.00,,---,0.00,VWS V14.01,2013-04-17 02:56:00,
2013-04-16 23:01:00,58.9,51.3,30.08,South,173,6.6,9.6,76,0.00,,---,0.00,VWS V14.01,2013-04-17 03:01:00,
2013-04-16 23:06:00,58.9,51.4,30.09,SW,236,3.9,6.5,76,0.00,,---,0.00,VWS V14.01,2013-04-17 03:06:00,
2013-04-16 23:11:00,59.1,51.6,30.09,SW,217,5.1,8.2,76,0.00,,---,0.00,VWS V14.01,2013-04-17 03:11:00,
2013-04-16 23:16:00,59.0,51.5,30.10,SW,219,5.2,5.2,76,0.00,,---,0.00,VWS V14.01,2013-04-17 03:16:00,
2013-04-16 23:21:00,58.7,51.2,30.10,SSW,212,3.7,6.6,76,0.00,,---,0.00,VWS V14.01,2013-04-17 03:21:00,
2013-04-16 23:26:00,58.4,51.0,30.09,SW,226,5.7,9.1,76,0.00,,---,0.00,VWS V14.01,2013-04-17 03:26:00,
2013-04-16 23:31:00,58.4,51.0,30.09,WSW,238,7.8,12.6,76,0.00,,---,0.00,VWS V14.01,2013-04-17 03:31:00,
2013-04-16 23:36:00,58.8,51.3,30.09,WSW,250,8.3,11.2,76,0.00,,---,0.00,VWS V14.01,2013-04-17 03:36:00,
2013-04-16 23:41:00,58.7,51.2,30.09,SW,214,2.9,4.5,76,0.00,,---,0.00,VWS V14.01,2013-04-17 03:41:00,
2013-04-16 23:46:00,58.3,50.9,30.10,SSW,210,7.8,10.5,76,0.00,,---,0.00,VWS V14.01,2013-04-17 03:46:00,
2013-04-16 23:51:00,58.3,50.8,30.10,SSW,212,7.2,9.2,76,0.00,,---,0.00,VWS V14.01,2013-04-17 03:51:00,
2013-04-16 23:56:00,58.5,51.0,30.10,SW,233,4.5,9.4,76,0.00,,---,0.00,VWS V14.01,2013-04-17 03:56:00,